Location: Ebendorf
(52.1827°N, 11.5706°E)
Time: 12:20:20
(UTC+00:00)

OPS 6432 - Pass Details

Date: 15 May 2021
Orbit: 369 x 1711 km, 63.3° (Epoch: 13 June)

Event Time Altitude Azimuth Distance (km) Brightness Sun altitude
Exits shadow 00:57:33 28° 222° (SW) 1,014 5.6 -15.2°
Maximum altitude 00:59:30 86° 134° (SE) 488 4.5 -15.0°
Drops below altitude 10° 01:02:43 10° 47° (NE) 1,501 8.2 -14.8°
Sets 01:04:34 0° 47° (NE) 2,296 9.5 -14.7°
